This is the latest recevied weather packets stored in our database for station/object SR6WVX. If no packets are shown the sender has not sent any weather packets the latest 10 day(s).
| Time | Temp. | Humidity | Pressure | Rain* | Wind** | Luminosity | Snow |
|---|---|---|---|---|---|---|---|
| 1778236563 | 16.11° C | 60% | 1014.3 hPa | 0 mm | - | - | - |
| 1778236262 | 16.67° C | 60% | 1014.3 hPa | 0 mm | - | - | - |
| 1778235962 | 16.11° C | 62% | 1014.3 hPa | 0 mm | - | - | - |
| 1778235662 | 16.11° C | 63% | 1014.3 hPa | 0 mm | - | - | - |
| 1778235362 | 15.56° C | 62% | 1014.3 hPa | 0 mm | - | - | - |
| 1778235061 | 15.56° C | 63% | 1014.2 hPa | 0 mm | - | - | - |
| 1778234761 | 15.56° C | 64% | 1014.2 hPa | 0 mm | - | - | - |
| 1778234461 | 15.56° C | 64% | 1014.2 hPa | 0 mm | - | - | - |
| 1778234160 | 15.56° C | 64% | 1014.4 hPa | 0 mm | - | - | - |
| 1778233860 | 15.56° C | 64% | 1014.3 hPa | 0 mm | - | - | - |
| 1778233560 | 15° C | 65% | 1014.4 hPa | 0 mm | - | - | - |
| 1778233260 | 14.44° C | 69% | 1014.4 hPa | 0 mm | - | - | - |
| 1778232959 | 13.89° C | 68% | 1014.5 hPa | 0 mm | - | - | - |
| 1778232659 | 13.89° C | 68% | 1014.5 hPa | 0 mm | - | - | - |
| 1778232359 | 13.89° C | 67% | 1014.5 hPa | 0 mm | - | - | - |
| 1778232059 | 13.89° C | 65% | 1014.5 hPa | 0 mm | - | - | - |
| 1778231759 | 14.44° C | 65% | 1014.5 hPa | 0 mm | - | - | - |
| 1778231458 | 15° C | 66% | 1014.5 hPa | 0 mm | - | - | - |
| 1778231158 | 15° C | 68% | 1014.5 hPa | 0 mm | - | - | - |
| 1778230858 | 14.44° C | 68% | 1014.5 hPa | 0 mm | - | - | - |
| 1778230557 | 13.89° C | 69% | 1014.5 hPa | 0 mm | - | - | - |
| 1778230257 | 13.33° C | 70% | 1014.3 hPa | 0 mm | - | - | - |
| 1778229957 | 13.33° C | 69% | 1014.4 hPa | 0 mm | - | - | - |
| 1778229657 | 13.33° C | 70% | 1014.4 hPa | 0 mm | - | - | - |
| 1778229356 | 12.78° C | 70% | 1014.3 hPa | 0 mm | - | - | - |
* Rain latest hour (hover to see other rain measurements)
** Current wind speed in m/s (hover to see current wind gust speed)